Location: Arran
(51.9410°N, 101.7372°W)
Time: 13:39:49
(UTC+00:00)

BlueWalker 3 - Pass Details

Date: 02 December 2022
Orbit: 499 x 517 km, 53.2° (Epoch: 30 January)

Event Time Altitude Azimuth Distance (km) Brightness Sun altitude
Rises 23:55:17 0° 264° (W) 2,630 7.3 -11.2°
Reaches altitude 10° 23:57:30 10° 266° (W) 1,741 6.0 -11.5°
Maximum altitude 00:01:26 76° 353° (N) 533 2.0 -12.0°
Enters shadow 00:04:05 20° 77° (ENE) 1,237 3.3 -12.4°
